Simultaneous Nadir Overpasses (SNOs) Predictions

Prediction of SNOs between METOP-B and NOAA-19 Satellite Orbit:

Table of predicted SNOs for the next 14.0 days since TLE Epoch: 1/9/2021
Index Date (METOP-B) Time (METOP-B) Lat,Lon (METOP-B) SZA (METOP-B ) Date (NOAA-19) Time (NOAA-19) Lat,Lon (NOAA-19) SZA (NOAA-19 ) Distance(km) Time Diff (sec)
1 01/17/2021 23:14:18 80.36,-142.30 101.63 01/17/2021 23:13:03 80.35,-142.19 101.60 2.45 75
2 01/18/2021 00:04:59 -80.36, 25.09 78.38 01/18/2021 00:03:58 -80.35, 25.07 78.41 1.73 61
3 01/18/2021 00:55:40 80.35,-167.76 101.59 01/18/2021 00:55:04 80.36,-167.87 101.59 2.29 36
4 01/18/2021 01:46:21 -80.35, -0.37 78.41 01/18/2021 01:45:58 -80.34, -0.29 78.42 2.11 23
5 01/18/2021 02:37:02 80.34, 166.77 101.56 01/18/2021 02:37:04 80.35, 166.78 101.57 1.25 2
6 01/18/2021 03:27:43 -80.35, -25.83 78.44 01/18/2021 03:27:59 -80.35, -25.97 78.44 2.84 16
7 01/18/2021 04:18:24 80.33, 141.31 101.53 01/18/2021 04:19:04 80.34, 141.43 101.56 2.54 40
8 01/18/2021 05:09:05 -80.34, -51.28 78.47 01/18/2021 05:09:59 -80.34, -51.32 78.45 1.17 54



Historial Predications of SNOs between METOP-B and NOAA-19
